Regional Weather Roundup
Issued by NWS Newport/Morehead, NC

Current Version | Previous Version | Graphics & Text | Print | Product List | Glossary On
Versions: 1 2 3 4 5 6 7 8 9 10 11 12 13 14 15 16 17 18 19 20 21 22 23 24 25 26 27 28 29 30 31 32 33 34 35 36 37 38 39 40 41 42 43 44 45 46 47 48 49 50
000 ASUS42 KMHX 280422 RWRMHX WEATHER ROUNDUP FOR EASTERN NORTH CAROLINA NATIONAL WEATHER SERVICE NEWPORT/MOREHEAD CITY NC 1100 PM EST THU NOV 27 2014 NOTE: "FAIR" INDICATES FEW OR NO CLOUDS BELOW 12,000 FEET WITH NO SIGNIFICANT WEATHER AND/OR OBSTRUCTIONS TO VISIBILITY NCZ015>017-031-032-045>047-102-103-280500- NORTH COAST CITY SKY/WX TMP DP RH WIND PRES REMARKS EDENTON CLOUDY 42 39 91 NW7 30.19S ELIZABETH CITY MOCLDY 43 36 76 NW10 30.18S KITTY HAWK CLEAR 42 36 80 NW8G16 30.14R MANTEO CLEAR 42 34 74 NW12G18 30.17R $$ NCZ045>047-081-094-103-104-280500- CENTRAL COAST CITY SKY/WX TMP DP RH WIND PRES REMARKS FRISCO PTCLDY 44 34 67 NW14G24 30.15R SWANQUARTER N/A 39 N/A N/A NW8 30.15S $$ NCZ095-097-098-100-101-280500- SOUTHERN COAST CITY SKY/WX TMP DP RH WIND PRES REMARKS BEAUFORT CLEAR 43 38 82 NW15 30.20R CEDAR ISLAND N/A 45 N/A N/A NW17 30.21S JACKSONVILLE CLEAR 40 35 83 NW10 30.22R PINEY ISLAND PTCLDY 45 38 76 NW12 30.19R WILMINGTON CLEAR 41 32 70 N10 30.23R $$ NCZ011>013-027>030-043-044-078>080-089-090>093-098-280500- COASTAL PLAIN CITY SKY/WX TMP DP RH WIND PRES REMARKS AHOSKIE CLOUDY 38 31 76 NW5 30.22R CLINTON CLEAR 38 32 78 CALM 30.25S ELIZABETHTOWN CLEAR 39 31 71 NW3 30.25R GOLDSBORO CLEAR 39 33 78 NW10 30.22R GREENVILLE CLEAR 37 30 75 NW7 30.23S HAVELOCK CLEAR 42 33 70 NW12 30.22R KENANSVILLE CLEAR 38 32 80 NW5 30.25S KINSTON CLEAR 38 31 74 NW7 30.24R NEW BERN CLEAR 42 31 64 NW9 30.22R RICHLANDS CLEAR 39 30 70 CALM 30.23F ROCKY MOUNT CLEAR 37 25 61 NW8 30.24R WASHINGTON PTCLDY 39 29 68 NW9 30.22R WHITEVILLE PTCLDY 39 32 75 CALM 30.25R $$ AMZ130-135-150-152-154-156-158-170-250-252-270-ANZ085-086-088-633-658-670-280500- MARINE OBSERVATIONS STATION/POSITION TIME TEMP WIND PRES WAVE SWELL AIR SEA DIR/SP/G HT/PER HT/PER (UTC) (F) (DEG/KT/KT) (MB) (FT/S) (FT/S) CHESAPEAKE LIGHT 0400 44 330/ 22/ 26 1021.5 64 E VA BEACH 0400 48 65 340/ 21/ 29 1018.7 6/ 6 2/ 9 DUCK 0400 43 53 320/ 15/ 19 1020.0 2 E DUCK 0400 54 N/A 5/ 5 2/14 10 NE DUCK 0400 57 N/A 6/ 5 2/14 OREGON INLET 0400 44 55 320/ 13/ 18 1020.9 13E OREGON INLT 0400 60 N/A 8/ 6 2/11 HATTERAS CG 0400 46 58 330/ 21/ 25 1021.3 DIAMOND BUOY 0400 48 320/ 21/ 27 1019.8 7/ 5 2/14 17 S OCRACOKE NOT AVBL CAPE LOOKOUT 0400 45 330/ 21/ 25 1022.0 BEAUFORT LAB 0400 43 56 320/ 6/ 11 1021.5 30 SE NEW RIVER 0400 50 66 340/ 25/ 33 1021.8 6/ 5 2/ 9 5 SE WRIGHTSVLE 0400 43 59 340/ 14/ 17 1023.3 225 S CAPE HAT 0253 62 73 310/ 21/ 27 1018.2 11/ 9 3/14 41 SE CHARLESTON 0400 55 72 310/ 17/ 21 1023.3 5/ 5 2/10 $$

USA.gov is the U.S. government's official web portal to all federal, state and local government web resources and services.